When you browse on this site, cookies collect data to enhance your experience and personalize the content and advertising you see.
Visit our Privacy Policy to learn more. By continuing to use the site, you agree to this use of cookies and data.
  • In United States
  • List of Countries
  • For 7 days
  • Water Temperature
  • Satellite Maps
  • Weather Map
  • Weather Widgets
  • user-avatar
    Login

    Hourly Weather Ondjiwa

    Today, 17 December, Monday

    Time Temperature Precipitation Wind Pressure Humidity
    00:00 +30°C° 0 mm 3 mps 667 mmHg 30%
    01:00 +29°C° 0 mm 4 mps 667 mmHg 33%
    02:00 +28°C° 0 mm 3 mps 667 mmHg 34%
    03:00 +28°C° 0 mm 3 mps 667 mmHg 36%
    04:00 +27°C° 0 mm 2 mps 666 mmHg 38%
    05:00 +27°C° 0 mm 3 mps 667 mmHg 37%
    06:00 +27°C° 0 mm 4 mps 667 mmHg 37%
    07:00 +27°C° 0 mm 4 mps 668 mmHg 36%
    08:00 +29°C° 0 mm 4 mps 668 mmHg 33%
    09:00 +30°C° 0 mm 4 mps 668 mmHg 30%
    10:00 +33°C° 0 mm 3 mps 668 mmHg 27%
    11:00 +34°C° 0 mm 3 mps 668 mmHg 25%
    12:00 +36°C° 0 mm 3 mps 668 mmHg 23%
    13:00 +37°C° 0 mm 3 mps 667 mmHg 20%
    14:00 +37°C° 0 mm 3 mps 667 mmHg 20%
    15:00 +37°C° 0 mm 2 mps 666 mmHg 20%
    16:00 +37°C° 0 mm 2 mps 666 mmHg 20%
    17:00 +36°C° 0 mm 2 mps 666 mmHg 22%
    18:00 +34°C° 0 mm 2 mps 666 mmHg 24%
    19:00 +32°C° 0 mm 2 mps 666 mmHg 26%
    20:00 +31°C° 0.1 mm 2 mps 666 mmHg 28%
    21:00 +30°C° 0.1 mm 3 mps 667 mmHg 30%
    22:00 +29°C° 0.1 mm 3 mps 667 mmHg 32%
    23:00 +28°C° 0.1 mm 3 mps 667 mmHg 35%

    Tomorrow, 18 December, Tuesday

    Time Temperature Precipitation Wind Pressure Humidity
    00:00 +28°C° 0.1 mm 3 mps 667 mmHg 37%
    01:00 +27°C° 0.1 mm 3 mps 667 mmHg 40%
    02:00 +27°C° 0 mm 3 mps 667 mmHg 40%
    03:00 +26°C° 0 mm 3 mps 667 mmHg 41%
    04:00 +26°C° 0 mm 3 mps 667 mmHg 42%
    05:00 +26°C° 0 mm 3 mps 667 mmHg 40%
    06:00 +27°C° 0 mm 4 mps 668 mmHg 39%
    07:00 +27°C° 0 mm 4 mps 668 mmHg 37%
    08:00 +29°C° 0 mm 4 mps 668 mmHg 33%
    09:00 +32°C° 0 mm 4 mps 669 mmHg 28%
    10:00 +35°C° 0 mm 4 mps 669 mmHg 23%
    11:00 +36°C° 0 mm 4 mps 668 mmHg 21%
    12:00 +38°C° 0 mm 3 mps 668 mmHg 19%
    13:00 +39°C° 0 mm 3 mps 667 mmHg 18%
    14:00 +39°C° 0 mm 3 mps 667 mmHg 18%
    15:00 +38°C° 0 mm 3 mps 666 mmHg 18%
    16:00 +38°C° 0 mm 2 mps 665 mmHg 18%
    17:00 +36°C° 0 mm 2 mps 665 mmHg 20%
    18:00 +35°C° 0 mm 2 mps 665 mmHg 21%
    19:00 +32°C° 0 mm 2 mps 665 mmHg 23%
    20:00 +33°C° 0 mm 3 mps 666 mmHg 24%
    21:00 +32°C° 0 mm 4 mps 667 mmHg 26%
    22:00 +32°C° 0 mm 5 mps 667 mmHg 27%
    23:00 +30°C° 0 mm 5 mps 667 mmHg 29%

    Day after tomorrow, 19 December, Wednesday

    Time Temperature Precipitation Wind Pressure Humidity
    00:00 +29°C° 0 mm 5 mps 667 mmHg 31%
    01:00 +28°C° 0 mm 5 mps 667 mmHg 33%
    02:00 +28°C° 0 mm 4 mps 667 mmHg 34%
    03:00 +27°C° 0 mm 4 mps 667 mmHg 36%
    04:00 +26°C° 0 mm 3 mps 667 mmHg 38%
    05:00 +26°C° 0 mm 3 mps 667 mmHg 36%
    06:00 +26°C° 0 mm 4 mps 668 mmHg 34%
    07:00 +27°C° 0 mm 4 mps 668 mmHg 32%
    08:00 +29°C° 0 mm 4 mps 668 mmHg 27%
    09:00 +32°C° 0 mm 4 mps 669 mmHg 23%
    10:00 +34°C° 0 mm 4 mps 669 mmHg 18%
    11:00 +35°C° 0 mm 4 mps 668 mmHg 17%
    12:00 +37°C° 0 mm 4 mps 668 mmHg 16%
    13:00 +38°C° 0 mm 4 mps 667 mmHg 16%
    14:00 +38°C° 0 mm 4 mps 666 mmHg 16%
    15:00 +38°C° 0 mm 4 mps 666 mmHg 15%
    16:00 +38°C° 0 mm 4 mps 665 mmHg 15%
    17:00 +37°C° 0 mm 3 mps 665 mmHg 16%
    18:00 +35°C° 0 mm 3 mps 665 mmHg 17%
    19:00 +34°C° 0 mm 2 mps 665 mmHg 19%
    20:00 +33°C° 0 mm 3 mps 666 mmHg 18%
    21:00 +33°C° 0 mm 3 mps 666 mmHg 18%
    22:00 +32°C° 0 mm 4 mps 667 mmHg 18%
    23:00 +30°C° 0 mm 4 mps 666 mmHg 20%

    20 December, Thursday

    Time Temperature Precipitation Wind Pressure Humidity
    00:00 +29°C° 0 mm 4 mps 666 mmHg 22%
    01:00 +27°C° 0 mm 4 mps 666 mmHg 24%
    02:00 +26°C° 0 mm 4 mps 666 mmHg 26%
    03:00 +25°C° 0 mm 3 mps 666 mmHg 29%
    04:00 +24°C° 0 mm 3 mps 666 mmHg 31%
    05:00 +25°C° 0 mm 3 mps 666 mmHg 29%
    06:00 +26°C° 0 mm 3 mps 667 mmHg 28%
    07:00 +27°C° 0 mm 3 mps 668 mmHg 26%
    08:00 +29°C° 0 mm 4 mps 668 mmHg 21%
    09:00 +33°C° 0 mm 4 mps 668 mmHg 15%
    10:00 +36°C° 0 mm 5 mps 669 mmHg 10%
    11:00 +37°C° 0 mm 5 mps 668 mmHg 10%
    12:00 +39°C° 0 mm 5 mps 667 mmHg 9%
    13:00 +41°C° 0 mm 5 mps 667 mmHg 9%
    14:00 +41°C° 0 mm 5 mps 666 mmHg 9%
    15:00 +41°C° 0 mm 5 mps 666 mmHg 9%
    16:00 +41°C° 0 mm 5 mps 665 mmHg 10%
    17:00 +38°C° 0 mm 4 mps 665 mmHg 11%
    18:00 +36°C° 0 mm 3 mps 665 mmHg 13%
    19:00 +34°C° 0 mm 3 mps 665 mmHg 14%
    20:00 +33°C° 0 mm 4 mps 666 mmHg 14%
    21:00 +32°C° 0 mm 5 mps 666 mmHg 14%
    22:00 +32°C° 0 mm 6 mps 667 mmHg 13%
    23:00 +30°C° 0 mm 6 mps 667 mmHg 15%

    21 December, Friday

    Time Temperature Precipitation Wind Pressure Humidity
    00:00 +29°C° 0 mm 5 mps 666 mmHg 16%
    01:00 +28°C° 0 mm 5 mps 666 mmHg 18%
    02:00 +27°C° 0 mm 4 mps 666 mmHg 18%
    03:00 +26°C° 0 mm 3 mps 666 mmHg 18%
    04:00 +26°C° 0 mm 3 mps 666 mmHg 18%
    05:00 +26°C° 0 mm 3 mps 667 mmHg 17%
    06:00 +27°C° 0 mm 4 mps 667 mmHg 16%
    07:00 +27°C° 0 mm 4 mps 668 mmHg 15%
    08:00 +29°C° 0 mm 4 mps 668 mmHg 12%
    09:00 +32°C° 0 mm 5 mps 668 mmHg 10%
    10:00 +34°C° 0 mm 5 mps 668 mmHg 8%
    11:00 +35°C° 0 mm 5 mps 668 mmHg 8%
    12:00 +37°C° 0 mm 5 mps 667 mmHg 9%
    13:00 +39°C° 0 mm 5 mps 667 mmHg 9%
    14:00 +38°C° 0 mm 4 mps 666 mmHg 10%
    15:00 +38°C° 0 mm 4 mps 665 mmHg 11%
    16:00 +38°C° 0 mm 3 mps 665 mmHg 11%
    17:00 +36°C° 0 mm 2 mps 664 mmHg 13%
    18:00 +34°C° 0 mm 2 mps 664 mmHg 15%
    19:00 +31°C° 0 mm 1 mps 664 mmHg 16%
    20:00 +30°C° 0 mm 2 mps 664 mmHg 16%
    21:00 +30°C° 0 mm 2 mps 665 mmHg 16%
    22:00 +29°C° 0 mm 3 mps 665 mmHg 17%
    23:00 +28°C° 0 mm 3 mps 665 mmHg 18%

    22 December, Saturday

    Time Temperature Precipitation Wind Pressure Humidity
    00:00 +27°C° 0 mm 2 mps 665 mmHg 19%
    01:00 +26°C° 0 mm 2 mps 664 mmHg 20%
    02:00 +25°C° 0 mm 2 mps 665 mmHg 21%
    03:00 +25°C° 0 mm 2 mps 665 mmHg 21%
    04:00 +24°C° 0 mm 2 mps 665 mmHg 22%
    05:00 +25°C° 0 mm 3 mps 665 mmHg 20%
    06:00 +26°C° 0 mm 3 mps 666 mmHg 18%
    07:00 +27°C° 0 mm 3 mps 666 mmHg 17%
    08:00 +29°C° 0 mm 4 mps 667 mmHg 14%
    09:00 +33°C° 0 mm 4 mps 667 mmHg 12%
    10:00 +35°C° 0 mm 4 mps 667 mmHg 9%
    11:00 +37°C° 0 mm 4 mps 667 mmHg 9%
    12:00 +38°C° 0 mm 4 mps 666 mmHg 10%
    13:00 +41°C° 0 mm 4 mps 665 mmHg 10%
    14:00 +41°C° 0 mm 4 mps 665 mmHg 11%
    15:00 +40°C° 0 mm 3 mps 664 mmHg 11%
    16:00 +40°C° 0 mm 3 mps 664 mmHg 12%
    17:00 +38°C° 0 mm 3 mps 664 mmHg 14%
    18:00 +36°C° 0 mm 2 mps 664 mmHg 16%
    19:00 +33°C° 0 mm 1 mps 663 mmHg 18%
    20:00 +34°C° 0 mm 2 mps 664 mmHg 20%
    21:00 +33°C° 0 mm 3 mps 665 mmHg 22%
    22:00 +33°C° 0 mm 3 mps 665 mmHg 24%
    23:00 +30°C° 0.5 mm 3 mps 665 mmHg 26%
    Show more